Time,TemperatureF,DewpointF,PressureIn,WindDirection,WindDirectionDegrees,WindSpeedMPH,WindSpeedGustMPH,Humidity,HourlyPrecipIn,Conditions,Clouds,dailyrainin,SoftwareType,DateUTC
2013-11-01 00:00:00,68.5,62.1,29.91,WSW,245,0.0,0.0,80,0.00,CLR,,0.00,WeatherDisplay:10.37,2013-11-01 04:00:00,
2013-11-01 00:05:00,68.5,62.1,29.91,WNW,284,0.0,3.0,80,0.00,CLR,,0.00,WeatherDisplay:10.37,2013-11-01 04:05:00,
2013-11-01 00:10:00,68.5,62.1,29.91,NW,323,0.0,0.0,80,0.00,CLR,,0.00,WeatherDisplay:10.37,2013-11-01 04:10:00,
2013-11-01 00:15:00,68.7,62.3,29.91,SSW,200,2.0,5.0,80,0.00,CLR,,0.00,WeatherDisplay:10.37,2013-11-01 04:15:00,
2013-11-01 00:20:00,68.7,62.3,29.91,SSW,206,0.0,0.0,80,0.00,CLR,,0.00,WeatherDisplay:10.37,2013-11-01 04:20:00,
2013-11-01 00:25:00,68.7,62.3,29.91,South,188,0.0,0.0,80,0.00,CLR,,0.00,WeatherDisplay:10.37,2013-11-01 04:25:00,
2013-11-01 00:30:00,68.7,62.3,29.88,SSW,210,0.0,6.0,80,0.00,CLR,,0.00,WeatherDisplay:10.37,2013-11-01 04:30:00,
2013-11-01 00:35:00,68.7,61.9,29.88,WNW,302,0.0,6.0,79,0.00,CLR,,0.00,WeatherDisplay:10.37,2013-11-01 04:35:00,
2013-11-01 00:40:00,68.7,61.9,29.88,South,176,0.0,4.0,79,0.00,CLR,,0.00,WeatherDisplay:10.37,2013-11-01 04:40:00,
2013-11-01 00:45:00,68.7,61.9,29.88,SW,232,0.0,0.0,79,0.00,CLR,,0.00,WeatherDisplay:10.37,2013-11-01 04:45:00,
2013-11-01 00:50:00,68.7,61.9,29.88,WSW,245,0.0,4.0,79,0.00,CLR,,0.00,WeatherDisplay:10.37,2013-11-01 04:50:00,
2013-11-01 00:55:00,68.7,61.9,29.88,SW,224,0.0,5.0,79,0.00,CLR,,0.00,WeatherDisplay:10.37,2013-11-01 04:55:00,
2013-11-01 01:00:00,69.0,61.9,29.88,SSW,209,0.0,5.0,78,0.00,CLR,,0.00,WeatherDisplay:10.37,2013-11-01 05:00:00,
2013-11-01 01:05:00,69.3,62.1,29.88,WSW,237,0.0,3.0,78,0.00,CLR,,0.00,WeatherDisplay:10.37,2013-11-01 05:05:00,
2013-11-01 01:10:00,69.1,61.9,29.88,WSW,240,2.0,6.0,78,0.00,CLR,,0.00,WeatherDisplay:10.37,2013-11-01 05:10:00,
2013-11-01 01:15:00,69.3,62.1,29.88,South,191,0.0,5.0,78,0.00,CLR,,0.00,WeatherDisplay:10.37,2013-11-01 05:15:00,
2013-11-01 01:20:00,69.3,61.7,29.88,South,186,2.0,7.0,77,0.00,CLR,,0.00,WeatherDisplay:10.37,2013-11-01 05:20:00,
2013-11-01 01:25:00,69.3,61.7,29.88,SW,217,0.0,10.0,77,0.00,CLR,,0.00,WeatherDisplay:10.37,2013-11-01 05:25:00,
2013-11-01 01:30:00,69.3,61.7,29.88,SW,214,0.0,7.0,77,0.00,CLR,,0.00,WeatherDisplay:10.37,2013-11-01 05:30:00,
2013-11-01 01:35:00,69.3,61.7,29.88,SSW,200,0.0,7.0,77,0.00,CLR,,0.00,WeatherDisplay:10.37,2013-11-01 05:35:00,
2013-11-01 01:40:00,69.3,61.7,29.88,SSW,212,0.0,8.0,77,0.00,CLR,,0.00,WeatherDisplay:10.37,2013-11-01 05:40:00,
2013-11-01 01:45:00,69.3,61.7,29.88,SW,214,0.0,3.0,77,0.00,CLR,,0.00,WeatherDisplay:10.37,2013-11-01 05:45:00,
2013-11-01 01:50:00,69.1,61.6,29.88,SW,226,0.0,0.0,77,0.00,CLR,,0.00,WeatherDisplay:10.37,2013-11-01 05:50:00,
2013-11-01 01:55:00,69.1,61.6,29.88,SSW,203,0.0,4.0,77,0.00,CLR,,0.00,WeatherDisplay:10.37,2013-11-01 05:55:00,
2013-11-01 02:00:00,68.9,61.8,29.85,SSW,212,2.0,7.0,78,0.00,CLR,,0.00,WeatherDisplay:10.37,2013-11-01 06:00:00,
2013-11-01 02:05:00,68.9,61.8,29.85,South,189,0.0,7.0,78,0.00,CLR,,0.00,WeatherDisplay:10.37,2013-11-01 06:05:00,
2013-11-01 02:10:00,68.9,61.8,29.85,SSE,159,0.0,0.0,78,0.00,CLR,,0.00,WeatherDisplay:10.37,2013-11-01 06:10:00,
2013-11-01 02:15:00,68.7,61.9,29.85,SSE,160,0.0,7.0,79,0.00,CLR,,0.00,WeatherDisplay:10.37,2013-11-01 06:15:00,
2013-11-01 02:20:00,68.7,61.9,29.85,SSW,202,0.0,3.0,79,0.00,CLR,,0.00,WeatherDisplay:10.37,2013-11-01 06:20:00,
2013-11-01 02:25:00,68.7,61.9,29.85,SW,220,0.0,5.0,79,0.00,CLR,,0.00,WeatherDisplay:10.37,2013-11-01 06:25:00,
2013-11-01 02:30:00,68.7,62.3,29.85,SW,229,0.0,5.0,80,0.00,CLR,,0.00,WeatherDisplay:10.37,2013-11-01 06:30:00,
2013-11-01 02:35:00,68.7,62.7,29.85,SSW,195,0.0,5.0,81,0.00,CLR,,0.00,WeatherDisplay:10.37,2013-11-01 06:35:00,
2013-11-01 02:40:00,68.7,62.7,29.85,SSW,208,0.0,4.0,81,0.00,CLR,,0.00,WeatherDisplay:10.37,2013-11-01 06:40:00,
2013-11-01 02:45:00,68.7,62.3,29.83,SW,234,0.0,4.0,80,0.00,CLR,,0.00,WeatherDisplay:10.37,2013-11-01 06:45:00,
2013-11-01 02:50:00,68.7,62.7,29.83,SW,228,0.0,5.0,81,0.00,CLR,,0.00,WeatherDisplay:10.37,2013-11-01 06:50:00,
2013-11-01 02:55:00,68.5,62.5,29.83,SW,234,2.0,7.0,81,0.00,CLR,,0.00,WeatherDisplay:10.37,2013-11-01 06:55:00,
2013-11-01 03:00:00,68.5,62.5,29.80,SW,223,0.0,6.0,81,0.00,CLR,,0.00,WeatherDisplay:10.37,2013-11-01 07:00:00,
2013-11-01 03:05:00,68.5,62.5,29.80,SW,229,2.0,5.0,81,0.00,CLR,,0.00,WeatherDisplay:10.37,2013-11-01 07:05:00,
2013-11-01 03:10:00,68.5,62.8,29.80,SW,224,2.0,7.0,82,0.00,CLR,,0.00,WeatherDisplay:10.37,2013-11-01 07:10:00,
2013-11-01 03:15:00,68.5,62.8,29.80,SSW,203,0.0,7.0,82,0.00,CLR,,0.00,WeatherDisplay:10.37,2013-11-01 07:15:00,
2013-11-01 03:20:00,68.5,62.8,29.80,SSW,208,0.0,9.0,82,0.00,CLR,,0.00,WeatherDisplay:10.37,2013-11-01 07:20:00,
2013-11-01 03:25:00,68.5,63.2,29.80,South,181,2.0,7.0,83,0.00,CLR,,0.00,WeatherDisplay:10.37,2013-11-01 07:25:00,
2013-11-01 03:30:00,68.5,63.2,29.80,SSW,204,2.0,8.0,83,0.00,CLR,,0.00,WeatherDisplay:10.37,2013-11-01 07:30:00,
2013-11-01 03:35:00,68.5,63.2,29.80,SW,219,2.0,10.0,83,0.00,CLR,,0.00,WeatherDisplay:10.37,2013-11-01 07:35:00,
2013-11-01 03:40:00,68.5,63.2,29.80,SW,215,0.0,4.0,83,0.00,CLR,,0.00,WeatherDisplay:10.37,2013-11-01 07:40:00,
2013-11-01 03:45:00,68.5,63.2,29.74,SW,223,0.0,7.0,83,0.00,CLR,,0.00,WeatherDisplay:10.37,2013-11-01 07:45:00,
2013-11-01 03:50:00,68.5,63.2,29.74,SW,229,0.0,9.0,83,0.00,CLR,,0.00,WeatherDisplay:10.37,2013-11-01 07:50:00,
2013-11-01 03:55:00,68.5,63.2,29.74,WSW,239,2.0,5.0,83,0.00,CLR,,0.00,WeatherDisplay:10.37,2013-11-01 07:55:00,
2013-11-01 04:00:00,68.5,63.2,29.74,WSW,242,0.0,7.0,83,0.00,CLR,,0.00,WeatherDisplay:10.37,2013-11-01 08:00:00,
2013-11-01 04:05:00,68.7,63.7,29.74,SSW,210,0.0,6.0,84,0.00,CLR,,0.00,WeatherDisplay:10.37,2013-11-01 08:05:00,
2013-11-01 04:10:00,68.7,63.7,29.74,SW,217,0.0,5.0,84,0.00,CLR,,0.00,WeatherDisplay:10.37,2013-11-01 08:10:00,
2013-11-01 04:15:00,68.7,63.7,29.77,SW,236,0.0,8.0,84,0.00,CLR,,0.00,WeatherDisplay:10.37,2013-11-01 08:15:00,
2013-11-01 04:20:00,68.7,63.7,29.77,WSW,257,0.0,6.0,84,0.00,CLR,,0.00,WeatherDisplay:10.37,2013-11-01 08:20:00,
2013-11-01 04:25:00,68.7,63.7,29.77,WSW,239,2.0,4.0,84,0.00,CLR,,0.00,WeatherDisplay:10.37,2013-11-01 08:25:00,
2013-11-01 04:30:00,68.7,63.7,29.80,South,169,2.0,7.0,84,0.00,CLR,,0.00,WeatherDisplay:10.37,2013-11-01 08:30:00,
2013-11-01 04:35:00,68.7,63.7,29.80,SSW,210,0.0,5.0,84,0.00,CLR,,0.00,WeatherDisplay:10.37,2013-11-01 08:35:00,
2013-11-01 04:40:00,68.7,63.3,29.80,WSW,256,0.0,8.0,83,0.00,CLR,,0.00,WeatherDisplay:10.37,2013-11-01 08:40:00,
2013-11-01 04:45:00,68.7,63.7,29.80,SW,233,0.0,5.0,84,0.00,CLR,,0.00,WeatherDisplay:10.37,2013-11-01 08:45:00,
2013-11-01 04:50:00,68.7,63.7,29.80,South,186,0.0,7.0,84,0.00,CLR,,0.00,WeatherDisplay:10.37,2013-11-01 08:50:00,
2013-11-01 04:55:00,68.6,63.2,29.80,SSW,192,0.0,0.0,83,0.00,CLR,,0.00,WeatherDisplay:10.37,2013-11-01 08:55:00,
2013-11-01 05:00:00,68.5,63.2,29.80,SSW,207,0.0,4.0,83,0.00,CLR,,0.00,WeatherDisplay:10.37,2013-11-01 09:00:00,
2013-11-01 05:05:00,68.5,63.2,29.80,SSW,199,0.0,0.0,83,0.00,CLR,,0.00,WeatherDisplay:10.37,2013-11-01 09:05:00,
2013-11-01 05:10:00,68.5,63.1,29.80,SSW,195,2.0,5.0,83,0.00,CLR,,0.00,WeatherDisplay:10.37,2013-11-01 09:10:00,
2013-11-01 05:15:00,68.4,63.0,29.77,NNW,338,0.0,5.0,83,0.00,CLR,,0.00,WeatherDisplay:10.37,2013-11-01 09:15:00,
2013-11-01 05:20:00,68.2,63.2,29.77,WSW,252,0.0,5.0,84,0.00,CLR,,0.00,WeatherDisplay:10.37,2013-11-01 09:20:00,
2013-11-01 05:25:00,68.2,63.2,29.77,SSW,192,0.0,7.0,84,0.00,CLR,,0.00,WeatherDisplay:10.37,2013-11-01 09:25:00,
2013-11-01 05:30:00,68.2,63.2,29.80,South,170,0.0,5.0,84,0.00,CLR,,0.00,WeatherDisplay:10.37,2013-11-01 09:30:00,
2013-11-01 05:35:00,68.0,63.0,29.80,South,187,0.0,6.0,84,0.00,CLR,,0.00,WeatherDisplay:10.37,2013-11-01 09:35:00,
2013-11-01 05:40:00,68.0,63.0,29.80,SSW,193,2.0,8.0,84,0.00,CLR,,0.00,WeatherDisplay:10.37,2013-11-01 09:40:00,
2013-11-01 05:45:00,68.0,63.0,29.80,ESE,123,0.0,0.0,84,0.00,CLR,,0.00,WeatherDisplay:10.37,2013-11-01 09:45:00,
2013-11-01 05:50:00,68.0,63.0,29.80,South,188,0.0,0.0,84,0.00,CLR,,0.00,WeatherDisplay:10.37,2013-11-01 09:50:00,
2013-11-01 05:55:00,67.8,62.8,29.80,SW,230,0.0,0.0,84,0.00,CLR,,0.00,WeatherDisplay:10.37,2013-11-01 09:55:00,
2013-11-01 06:05:00,67.6,62.6,29.80,SSW,198,0.0,0.0,84,0.00,CLR,,0.00,WeatherDisplay:10.37,2013-11-01 10:05:00,
2013-11-01 06:10:00,67.6,62.6,29.80,SSE,162,0.0,5.0,84,0.00,CLR,,0.00,WeatherDisplay:10.37,2013-11-01 10:10:00,
2013-11-01 06:15:00,67.6,62.6,29.80,SSE,160,0.0,2.0,84,0.00,CLR,,0.00,WeatherDisplay:10.37,2013-11-01 10:15:00,
2013-11-01 06:20:00,67.6,62.6,29.80,South,177,0.0,4.0,84,0.00,CLR,,0.00,WeatherDisplay:10.37,2013-11-01 10:20:00,
2013-11-01 06:25:00,67.7,62.7,29.80,SSW,204,0.0,3.0,84,0.00,CLR,,0.00,WeatherDisplay:10.37,2013-11-01 10:25:00,
2013-11-01 06:30:00,67.8,62.8,29.77,South,191,0.0,0.0,84,0.00,CLR,,0.00,WeatherDisplay:10.37,2013-11-01 10:30:00,
2013-11-01 06:35:00,67.7,62.7,29.77,SSW,194,0.0,5.0,84,0.00,CLR,,0.00,WeatherDisplay:10.37,2013-11-01 10:35:00,
2013-11-01 06:40:00,67.6,62.3,29.77,SW,220,0.0,5.0,83,0.00,CLR,,0.00,WeatherDisplay:10.37,2013-11-01 10:40:00,
2013-11-01 06:45:00,67.6,62.3,29.77,South,170,0.0,0.0,83,0.00,CLR,,0.00,WeatherDisplay:10.37,2013-11-01 10:45:00,
2013-11-01 06:50:00,67.5,62.1,29.77,SE,124,0.0,3.0,83,0.00,CLR,,0.00,WeatherDisplay:10.37,2013-11-01 10:50:00,
2013-11-01 06:55:00,67.5,62.1,29.77,SSE,167,0.0,4.0,83,0.00,CLR,,0.00,WeatherDisplay:10.37,2013-11-01 10:55:00,
2013-11-01 07:00:00,67.5,62.1,29.80,SE,143,0.0,0.0,83,0.00,CLR,,0.00,WeatherDisplay:10.37,2013-11-01 11:00:00,
2013-11-01 07:05:00,67.5,62.1,29.80,South,189,0.0,7.0,83,0.00,CLR,,0.00,WeatherDisplay:10.37,2013-11-01 11:05:00,
2013-11-01 07:10:00,67.5,62.1,29.80,South,191,0.0,4.0,83,0.00,CLR,,0.00,WeatherDisplay:10.37,2013-11-01 11:10:00,
2013-11-01 07:15:00,67.3,61.9,29.80,SSE,155,0.0,5.0,83,0.00,CLR,,0.00,WeatherDisplay:10.37,2013-11-01 11:15:00,
2013-11-01 07:20:00,67.3,61.6,29.80,South,191,0.0,5.0,82,0.00,CLR,,0.00,WeatherDisplay:10.37,2013-11-01 11:20:00,
2013-11-01 07:25:00,67.3,61.6,29.80,WSW,237,2.0,7.0,82,0.00,CLR,,0.00,WeatherDisplay:10.37,2013-11-01 11:25:00,
2013-11-01 07:30:00,67.3,61.6,29.80,WSW,241,0.0,0.0,82,0.00,CLR,,0.00,WeatherDisplay:10.37,2013-11-01 11:30:00,
2013-11-01 07:35:00,67.3,61.6,29.80,South,185,0.0,3.0,82,0.00,CLR,,0.00,WeatherDisplay:10.37,2013-11-01 11:35:00,
2013-11-01 07:40:00,67.3,61.6,29.80,South,177,0.0,7.0,82,0.00,CLR,,0.00,WeatherDisplay:10.37,2013-11-01 11:40:00,
2013-11-01 07:45:00,67.1,61.4,29.77,SW,214,0.0,0.0,82,0.00,CLR,,0.00,WeatherDisplay:10.37,2013-11-01 11:45:00,
2013-11-01 07:50:00,67.1,61.4,29.77,SW,218,0.0,0.0,82,0.00,CLR,,0.00,WeatherDisplay:10.37,2013-11-01 11:50:00,
2013-11-01 07:55:00,67.1,61.4,29.77,South,172,0.0,0.0,82,0.00,CLR,,0.00,WeatherDisplay:10.37,2013-11-01 11:55:00,
2013-11-01 08:00:00,67.1,61.4,29.80,SSE,157,0.0,0.0,82,0.00,CLR,,0.00,WeatherDisplay:10.37,2013-11-01 12:00:00,
2013-11-01 08:05:00,67.1,61.4,29.80,SSW,192,0.0,0.0,82,0.00,CLR,,0.00,WeatherDisplay:10.37,2013-11-01 12:05:00,
2013-11-01 08:10:00,67.1,61.4,29.80,SW,225,0.0,0.0,82,0.00,CLR,,0.00,WeatherDisplay:10.37,2013-11-01 12:10:00,
2013-11-01 08:15:00,67.1,61.4,29.80,SW,216,0.0,4.0,82,0.00,CLR,,0.00,WeatherDisplay:10.37,2013-11-01 12:15:00,
2013-11-01 08:20:00,67.1,61.4,29.80,SSW,208,0.0,5.0,82,0.00,CLR,,0.00,WeatherDisplay:10.37,2013-11-01 12:20:00,
2013-11-01 08:25:00,67.3,61.6,29.80,SSW,213,0.0,5.0,82,0.00,CLR,,0.00,WeatherDisplay:10.37,2013-11-01 12:25:00,
2013-11-01 08:30:00,67.3,61.6,29.80,SSW,211,0.0,6.0,82,0.00,CLR,,0.00,WeatherDisplay:10.37,2013-11-01 12:30:00,
2013-11-01 08:35:00,67.5,61.8,29.80,SW,225,0.0,0.0,82,0.00,CLR,,0.00,WeatherDisplay:10.37,2013-11-01 12:35:00,
2013-11-01 08:40:00,67.5,61.8,29.80,SSW,210,0.0,4.0,82,0.00,CLR,,0.00,WeatherDisplay:10.37,2013-11-01 12:40:00,
2013-11-01 08:45:00,67.5,61.8,29.80,South,180,0.0,5.0,82,0.00,CLR,,0.00,WeatherDisplay:10.37,2013-11-01 12:45:00,
2013-11-01 08:50:00,67.6,61.9,29.80,SSW,195,0.0,0.0,82,0.00,CLR,,0.00,WeatherDisplay:10.37,2013-11-01 12:50:00,
2013-11-01 08:55:00,67.6,61.9,29.80,SW,225,0.0,0.0,82,0.00,CLR,,0.00,WeatherDisplay:10.37,2013-11-01 12:55:00,
2013-11-01 09:00:00,67.6,61.9,29.80,SSW,207,0.0,3.0,82,0.00,CLR,,0.00,WeatherDisplay:10.37,2013-11-01 13:00:00,
2013-11-01 09:05:00,67.8,61.8,29.80,SW,222,2.0,7.0,81,0.00,CLR,,0.00,WeatherDisplay:10.37,2013-11-01 13:05:00,
2013-11-01 09:10:00,67.9,61.8,29.80,SSW,205,0.0,5.0,81,0.00,CLR,,0.00,WeatherDisplay:10.37,2013-11-01 13:10:00,
2013-11-01 09:15:00,68.0,61.9,29.80,South,181,0.0,5.0,81,0.00,CLR,,0.00,WeatherDisplay:10.37,2013-11-01 13:15:00,
2013-11-01 09:20:00,68.0,61.9,29.80,South,180,2.0,5.0,81,0.00,CLR,,0.00,WeatherDisplay:10.37,2013-11-01 13:20:00,
2013-11-01 09:25:00,68.2,62.1,29.80,South,191,2.0,8.0,81,0.00,CLR,,0.00,WeatherDisplay:10.37,2013-11-01 13:25:00,
2013-11-01 09:30:00,68.2,61.8,29.80,WNW,294,0.0,8.0,80,0.00,CLR,,0.00,WeatherDisplay:10.37,2013-11-01 13:30:00,
2013-11-01 09:35:00,68.2,61.8,29.80,West,263,0.0,6.0,80,0.00,CLR,,0.00,WeatherDisplay:10.37,2013-11-01 13:35:00,
2013-11-01 09:40:00,68.4,61.9,29.80,SSW,207,0.0,5.0,80,0.00,CLR,,0.00,WeatherDisplay:10.37,2013-11-01 13:40:00,
2013-11-01 09:45:00,68.4,61.9,29.80,South,169,3.0,8.0,80,0.00,CLR,,0.00,WeatherDisplay:10.37,2013-11-01 13:45:00,
2013-11-01 09:50:00,68.5,62.1,29.80,South,178,0.0,5.0,80,0.00,CLR,,0.00,WeatherDisplay:10.37,2013-11-01 13:50:00,
2013-11-01 09:55:00,68.7,62.3,29.80,SW,215,0.0,4.0,80,0.00,CLR,,0.00,WeatherDisplay:10.37,2013-11-01 13:55:00,
2013-11-01 10:00:00,68.9,62.1,29.80,ESE,110,0.0,0.0,79,0.00,CLR,,0.00,WeatherDisplay:10.37,2013-11-01 14:00:00,
2013-11-01 10:05:00,69.1,62.3,29.80,SSE,167,0.0,6.0,79,0.00,CLR,,0.00,WeatherDisplay:10.37,2013-11-01 14:05:00,
2013-11-01 10:10:00,69.3,62.1,29.80,South,186,2.0,6.0,78,0.00,CLR,,0.00,WeatherDisplay:10.37,2013-11-01 14:10:00,
2013-11-01 10:15:00,69.4,62.3,29.80,South,190,0.0,5.0,78,0.00,CLR,,0.00,WeatherDisplay:10.37,2013-11-01 14:15:00,
2013-11-01 10:20:00,69.6,62.1,29.80,SW,214,2.0,5.0,77,0.00,CLR,,0.00,WeatherDisplay:10.37,2013-11-01 14:20:00,
2013-11-01 10:25:00,69.8,62.3,29.80,SW,225,0.0,3.0,77,0.00,CLR,,0.00,WeatherDisplay:10.37,2013-11-01 14:25:00,
2013-11-01 10:30:00,70.0,62.4,29.80,SSW,209,0.0,3.0,77,0.00,CLR,,0.00,WeatherDisplay:10.37,2013-11-01 14:30:00,
2013-11-01 10:35:00,70.0,62.4,29.80,SW,234,0.0,7.0,77,0.00,CLR,,0.00,WeatherDisplay:10.37,2013-11-01 14:35:00,
2013-11-01 10:40:00,70.2,62.6,29.80,West,261,0.0,7.0,77,0.00,CLR,,0.00,WeatherDisplay:10.37,2013-11-01 14:40:00,
2013-11-01 10:45:00,70.2,62.6,29.80,WSW,249,0.0,7.0,77,0.00,CLR,,0.00,WeatherDisplay:10.37,2013-11-01 14:45:00,
2013-11-01 10:50:00,70.2,62.6,29.80,SW,217,3.0,7.0,77,0.00,CLR,,0.00,WeatherDisplay:10.37,2013-11-01 14:50:00,
2013-11-01 10:55:00,70.3,62.4,29.80,SSW,203,0.0,7.0,76,0.00,CLR,,0.00,WeatherDisplay:10.37,2013-11-01 14:55:00,
2013-11-01 11:00:00,70.3,62.8,29.80,SSW,200,0.0,5.0,77,0.00,CLR,,0.00,WeatherDisplay:10.37,2013-11-01 15:00:00,
2013-11-01 11:05:00,70.2,63.0,29.80,SSW,201,0.0,5.0,78,0.00,CLR,,0.00,WeatherDisplay:10.37,2013-11-01 15:05:00,
2013-11-01 11:10:00,70.0,63.2,29.80,SSE,155,0.0,0.0,79,0.00,CLR,,0.00,WeatherDisplay:10.37,2013-11-01 15:10:00,
2013-11-01 11:15:00,69.8,63.0,29.80,SSE,167,0.0,0.0,79,0.00,CLR,,0.00,WeatherDisplay:10.37,2013-11-01 15:15:00,
2013-11-01 11:20:00,69.8,63.3,29.80,SSW,207,0.0,0.0,80,0.00,CLR,,0.00,WeatherDisplay:10.37,2013-11-01 15:20:00,
2013-11-01 11:25:00,69.6,63.5,29.80,SSW,197,0.0,4.0,81,0.00,CLR,,0.00,WeatherDisplay:10.37,2013-11-01 15:25:00,
2013-11-01 11:30:00,69.6,63.5,29.77,SSE,159,0.0,5.0,81,0.00,CLR,,0.00,WeatherDisplay:10.37,2013-11-01 15:30:00,
2013-11-01 11:35:00,69.6,63.9,29.77,SE,138,0.0,0.0,82,0.00,CLR,,0.00,WeatherDisplay:10.37,2013-11-01 15:35:00,
2013-11-01 11:40:00,69.6,63.9,29.77,SE,133,0.0,0.0,82,0.00,CLR,,0.00,WeatherDisplay:10.37,2013-11-01 15:40:00,
2013-11-01 11:45:00,69.4,63.7,29.80,SSW,193,0.0,0.0,82,0.00,CLR,,0.00,WeatherDisplay:10.37,2013-11-01 15:45:00,
2013-11-01 11:50:00,69.4,64.0,29.80,SW,231,0.0,5.0,83,0.00,CLR,,0.00,WeatherDisplay:10.37,2013-11-01 15:50:00,
2013-11-01 11:55:00,69.3,64.2,29.80,SSE,165,0.0,5.0,84,0.00,CLR,,0.00,WeatherDisplay:10.37,2013-11-01 15:55:00,
2013-11-01 12:00:00,69.3,64.2,29.80,West,259,0.0,4.0,84,0.00,CLR,,0.00,WeatherDisplay:10.37,2013-11-01 16:00:00,
2013-11-01 12:05:00,69.3,64.6,29.80,SW,222,0.0,5.0,85,0.00,CLR,,0.00,WeatherDisplay:10.37,2013-11-01 16:05:00,
2013-11-01 12:10:00,69.3,64.6,29.80,South,187,0.0,0.0,85,0.00,CLR,,0.00,WeatherDisplay:10.37,2013-11-01 16:10:00,
2013-11-01 12:15:00,69.3,64.9,29.80,South,186,0.0,0.0,86,0.00,CLR,,0.00,WeatherDisplay:10.37,2013-11-01 16:15:00,
2013-11-01 12:20:00,69.1,64.7,29.80,West,281,0.0,0.0,86,0.00,CLR,,0.00,WeatherDisplay:10.37,2013-11-01 16:20:00,
2013-11-01 12:25:00,69.1,64.7,29.80,North,355,0.0,0.0,86,0.00,CLR,,0.00,WeatherDisplay:10.37,2013-11-01 16:25:00,
2013-11-01 12:30:00,69.1,65.0,29.80,SE,128,0.0,0.0,87,0.00,CLR,,0.00,WeatherDisplay:10.37,2013-11-01 16:30:00,
2013-11-01 12:35:00,68.9,64.9,29.80,SE,145,0.0,4.0,87,0.00,CLR,,0.00,WeatherDisplay:10.37,2013-11-01 16:35:00,
2013-11-01 12:40:00,68.9,65.2,29.80,SSE,151,0.0,0.0,88,0.00,CLR,,0.00,WeatherDisplay:10.37,2013-11-01 16:40:00,
2013-11-01 12:45:00,69.3,65.9,29.80,SSE,152,0.0,0.0,89,0.00,CLR,,0.00,WeatherDisplay:10.37,2013-11-01 16:45:00,
2013-11-01 12:50:00,69.3,65.9,29.80,SE,137,0.0,0.0,89,0.00,CLR,,0.00,WeatherDisplay:10.37,2013-11-01 16:50:00,
2013-11-01 12:55:00,69.3,65.9,29.80,SE,141,0.0,4.0,89,0.00,CLR,,0.00,WeatherDisplay:10.37,2013-11-01 16:55:00,
2013-11-01 13:00:00,69.1,66.0,29.77,SW,220,0.0,4.0,90,0.00,CLR,,0.00,WeatherDisplay:10.37,2013-11-01 17:00:00,
2013-11-01 13:05:00,69.1,66.0,29.77,West,276,0.0,5.0,90,0.00,CLR,,0.00,WeatherDisplay:10.37,2013-11-01 17:05:00,
2013-11-01 13:10:00,68.9,66.2,29.77,WNW,301,0.0,3.0,91,0.00,CLR,,0.00,WeatherDisplay:10.37,2013-11-01 17:10:00,
2013-11-01 13:15:00,68.7,66.0,29.77,NE,40,0.0,0.0,91,0.00,CLR,,0.00,WeatherDisplay:10.37,2013-11-01 17:15:00,
2013-11-01 13:20:00,68.7,66.3,29.77,WNW,286,0.0,0.0,92,0.00,CLR,,0.00,WeatherDisplay:10.37,2013-11-01 17:20:00,
2013-11-01 13:25:00,68.5,66.1,29.77,WSW,257,0.0,0.0,92,0.00,CLR,,0.00,WeatherDisplay:10.37,2013-11-01 17:25:00,
2013-11-01 13:30:00,68.5,66.1,29.77,West,263,0.0,0.0,92,0.00,CLR,,0.00,WeatherDisplay:10.37,2013-11-01 17:30:00,
2013-11-01 13:35:00,68.5,66.1,29.77,West,264,0.0,0.0,92,0.00,CLR,,0.00,WeatherDisplay:10.37,2013-11-01 17:35:00,
2013-11-01 13:40:00,68.5,66.4,29.77,SSW,197,0.0,0.0,93,0.04,RA,,0.04,WeatherDisplay:10.37,2013-11-01 17:40:00,
2013-11-01 13:45:00,68.4,65.9,29.77,SE,125,0.0,0.0,92,0.00,RA,,0.04,WeatherDisplay:10.37,2013-11-01 17:45:00,
2013-11-01 13:50:00,68.2,66.1,29.77,East,91,0.0,0.0,93,0.00,CLR,,0.04,WeatherDisplay:10.37,2013-11-01 17:50:00,
2013-11-01 13:55:00,68.0,65.9,29.77,East,87,0.0,0.0,93,0.04,RA,,0.08,WeatherDisplay:10.37,2013-11-01 17:55:00,
2013-11-01 14:00:00,67.8,65.7,29.77,East,86,0.0,0.0,93,0.00,RA,,0.08,WeatherDisplay:10.37,2013-11-01 18:00:00,
2013-11-01 14:05:00,67.8,65.7,29.77,ENE,78,0.0,0.0,93,0.00,,,0.08,WeatherDisplay:10.37,2013-11-01 18:05:00,
2013-11-01 14:10:00,67.8,66.0,29.77,East,101,0.0,0.0,94,0.00,CLR,,0.08,WeatherDisplay:10.37,2013-11-01 18:10:00,
2013-11-01 14:15:00,67.8,66.0,29.74,ESE,104,0.0,0.0,94,0.00,CLR,,0.08,WeatherDisplay:10.37,2013-11-01 18:15:00,
2013-11-01 14:20:00,67.6,65.9,29.74,SE,132,0.0,5.0,94,0.00,CLR,,0.08,WeatherDisplay:10.37,2013-11-01 18:20:00,
2013-11-01 14:25:00,67.5,65.7,29.74,SSW,202,0.0,0.0,94,0.00,CLR,,0.08,WeatherDisplay:10.37,2013-11-01 18:25:00,
2013-11-01 14:30:00,67.5,65.7,29.74,SSW,204,0.0,4.0,94,0.00,CLR,,0.08,WeatherDisplay:10.37,2013-11-01 18:30:00,
2013-11-01 14:35:00,67.3,65.5,29.74,West,263,0.0,4.0,94,0.04,RA,,0.12,WeatherDisplay:10.37,2013-11-01 18:35:00,
2013-11-01 14:40:00,67.0,65.2,29.74,NNW,330,0.0,3.0,94,0.00,RA,,0.12,WeatherDisplay:10.37,2013-11-01 18:40:00,
2013-11-01 14:45:00,66.7,65.0,29.74,West,273,0.0,4.0,94,0.00,,,0.12,WeatherDisplay:10.37,2013-11-01 18:45:00,
2013-11-01 14:50:00,66.6,64.8,29.74,WSW,250,0.0,5.0,94,0.00,CLR,,0.12,WeatherDisplay:10.37,2013-11-01 18:50:00,
2013-11-01 14:55:00,66.4,64.6,29.74,WSW,242,0.0,0.0,94,0.04,RA,,0.16,WeatherDisplay:10.37,2013-11-01 18:55:00,
2013-11-01 15:00:00,65.8,64.1,29.74,NW,319,0.0,0.0,94,0.00,RA,,0.16,WeatherDisplay:10.37,2013-11-01 19:00:00,
2013-11-01 15:05:00,65.5,63.7,29.74,North,0,0.0,0.0,94,0.04,RA,,0.20,WeatherDisplay:10.37,2013-11-01 19:05:00,
2013-11-01 15:10:00,65.1,63.7,29.74,NW,326,0.0,0.0,95,0.00,RA,,0.20,WeatherDisplay:10.37,2013-11-01 19:10:00,
2013-11-01 15:15:00,64.8,63.3,29.74,NW,317,0.0,0.0,95,0.04,RA,,0.24,WeatherDisplay:10.37,2013-11-01 19:15:00,
2013-11-01 15:20:00,64.7,63.2,29.74,NE,43,0.0,0.0,95,0.00,RA,,0.24,WeatherDisplay:10.37,2013-11-01 19:20:00,
2013-11-01 15:25:00,64.6,63.1,29.74,North,3,0.0,0.0,95,0.00,,,0.24,WeatherDisplay:10.37,2013-11-01 19:25:00,
2013-11-01 15:30:00,64.6,63.1,29.74,NNW,327,0.0,0.0,95,0.04,RA,,0.28,WeatherDisplay:10.37,2013-11-01 19:30:00,
2013-11-01 15:35:00,64.6,63.4,29.74,NNW,328,0.0,0.0,96,0.00,RA,,0.28,WeatherDisplay:10.37,2013-11-01 19:35:00,
2013-11-01 15:40:00,64.6,63.4,29.74,NNW,328,0.0,0.0,96,0.00,,,0.28,WeatherDisplay:10.37,2013-11-01 19:40:00,
2013-11-01 15:45:00,64.8,63.6,29.74,NW,317,0.0,0.0,96,0.08,RA,,0.35,WeatherDisplay:10.37,2013-11-01 19:45:00,
2013-11-01 15:50:00,64.8,63.6,29.74,SSW,208,0.0,0.0,96,0.00,RA,,0.35,WeatherDisplay:10.37,2013-11-01 19:50:00,
2013-11-01 15:55:00,64.8,63.6,29.74,South,184,0.0,0.0,96,0.00,CLR,,0.35,WeatherDisplay:10.37,2013-11-01 19:55:00,
2013-11-01 16:00:00,64.8,63.6,29.71,South,179,0.0,0.0,96,0.00,CLR,,0.35,WeatherDisplay:10.37,2013-11-01 20:00:00,
2013-11-01 16:05:00,64.8,63.6,29.71,ESE,121,0.0,0.0,96,0.04,RA,,0.39,WeatherDisplay:10.37,2013-11-01 20:05:00,
2013-11-01 16:10:00,64.8,63.6,29.71,ESE,121,0.0,5.0,96,0.00,RA,,0.39,WeatherDisplay:10.37,2013-11-01 20:10:00,
2013-11-01 16:15:00,64.8,63.9,29.68,SSE,168,0.0,0.0,97,0.00,,,0.39,WeatherDisplay:10.37,2013-11-01 20:15:00,
2013-11-01 16:20:00,64.8,63.9,29.68,South,170,0.0,0.0,97,0.00,CLR,,0.39,WeatherDisplay:10.37,2013-11-01 20:20:00,
2013-11-01 16:25:00,64.8,63.9,29.68,SSE,158,0.0,0.0,97,0.00,CLR,,0.39,WeatherDisplay:10.37,2013-11-01 20:25:00,
2013-11-01 16:30:00,64.9,64.1,29.68,SE,142,0.0,0.0,97,0.00,CLR,,0.39,WeatherDisplay:10.37,2013-11-01 20:30:00,
2013-11-01 16:35:00,64.9,64.1,29.68,SE,139,0.0,0.0,97,0.00,CLR,,0.39,WeatherDisplay:10.37,2013-11-01 20:35:00,
2013-11-01 16:40:00,64.9,64.1,29.68,SE,139,0.0,0.0,97,0.00,CLR,,0.39,WeatherDisplay:10.37,2013-11-01 20:40:00,
2013-11-01 16:45:00,64.9,64.1,29.71,SSE,162,0.0,3.0,97,0.00,CLR,,0.39,WeatherDisplay:10.37,2013-11-01 20:45:00,
2013-11-01 16:50:00,64.8,63.9,29.71,South,178,0.0,0.0,97,0.00,CLR,,0.39,WeatherDisplay:10.37,2013-11-01 20:50:00,
2013-11-01 16:55:00,64.8,63.9,29.71,SSE,163,0.0,0.0,97,0.00,CLR,,0.39,WeatherDisplay:10.37,2013-11-01 20:55:00,
2013-11-01 17:00:00,64.6,63.7,29.68,SSE,157,0.0,0.0,97,0.00,CLR,,0.39,WeatherDisplay:10.37,2013-11-01 21:00:00,
2013-11-01 17:05:00,64.4,64.4,29.68,SSE,156,0.0,0.0,100,0.00,CLR,,0.39,WeatherDisplay:10.37,2013-11-01 21:05:00,
2013-11-01 17:10:00,64.6,64.6,29.68,SSE,156,0.0,0.0,100,0.00,CLR,,0.39,WeatherDisplay:10.37,2013-11-01 21:10:00,
2013-11-01 17:15:00,64.4,64.4,29.71,SE,140,0.0,0.0,100,0.00,CLR,,0.39,WeatherDisplay:10.37,2013-11-01 21:15:00,
2013-11-01 17:20:00,64.4,64.4,29.71,SE,127,0.0,0.0,100,0.00,CLR,,0.39,WeatherDisplay:10.37,2013-11-01 21:20:00,
2013-11-01 17:25:00,64.4,64.4,29.71,ESE,105,0.0,0.0,100,0.00,CLR,,0.39,WeatherDisplay:10.37,2013-11-01 21:25:00,
2013-11-01 17:30:00,64.4,64.4,29.71,SE,128,0.0,0.0,100,0.00,CLR,,0.39,WeatherDisplay:10.37,2013-11-01 21:30:00,
2013-11-01 17:35:00,64.4,64.4,29.71,ESE,113,0.0,0.0,100,0.04,RA,,0.43,WeatherDisplay:10.37,2013-11-01 21:35:00,
2013-11-01 17:40:00,64.4,64.4,29.71,East,88,0.0,0.0,100,0.00,RA,,0.43,WeatherDisplay:10.37,2013-11-01 21:40:00,
2013-11-01 17:45:00,64.4,64.4,29.71,SE,135,0.0,0.0,100,0.00,CLR,,0.43,WeatherDisplay:10.37,2013-11-01 21:45:00,
2013-11-01 17:50:00,64.4,64.4,29.71,SSE,154,0.0,5.0,100,0.00,CLR,,0.43,WeatherDisplay:10.37,2013-11-01 21:50:00,
2013-11-01 17:55:00,64.4,64.4,29.71,East,85,0.0,0.0,100,0.00,CLR,,0.43,WeatherDisplay:10.37,2013-11-01 21:55:00,
2013-11-01 18:00:00,64.4,64.4,29.71,North,10,0.0,0.0,100,0.00,CLR,,0.43,WeatherDisplay:10.37,2013-11-01 22:00:00,
2013-11-01 18:05:00,64.4,64.4,29.71,NNW,330,0.0,0.0,100,0.00,CLR,,0.43,WeatherDisplay:10.37,2013-11-01 22:05:00,
2013-11-01 18:10:00,64.4,64.4,29.71,North,356,0.0,3.0,100,0.00,CLR,,0.43,WeatherDisplay:10.37,2013-11-01 22:10:00,
2013-11-01 18:15:00,64.2,64.2,29.71,NE,53,0.0,0.0,100,0.00,CLR,,0.43,WeatherDisplay:10.37,2013-11-01 22:15:00,
2013-11-01 18:20:00,64.2,64.2,29.71,ESE,112,0.0,3.0,100,0.00,CLR,,0.43,WeatherDisplay:10.37,2013-11-01 22:20:00,
2013-11-01 18:25:00,64.0,64.0,29.71,South,175,0.0,0.0,100,0.00,CLR,,0.43,WeatherDisplay:10.37,2013-11-01 22:25:00,
2013-11-01 18:30:00,63.9,63.9,29.71,SW,235,0.0,0.0,100,0.00,CLR,,0.43,WeatherDisplay:10.37,2013-11-01 22:30:00,
2013-11-01 18:35:00,63.6,63.6,29.71,SW,215,0.0,4.0,100,0.00,CLR,,0.43,WeatherDisplay:10.37,2013-11-01 22:35:00,
2013-11-01 18:40:00,63.1,63.1,29.71,SSW,192,0.0,3.0,100,0.00,CLR,,0.43,WeatherDisplay:10.37,2013-11-01 22:40:00,
2013-11-01 18:45:00,62.8,62.8,29.71,SSW,197,0.0,0.0,100,0.00,CLR,,0.43,WeatherDisplay:10.37,2013-11-01 22:45:00,
2013-11-01 18:50:00,62.6,62.6,29.71,South,170,0.0,3.0,100,0.00,CLR,,0.43,WeatherDisplay:10.37,2013-11-01 22:50:00,
2013-11-01 18:55:00,62.4,62.4,29.71,SSE,149,0.0,3.0,100,0.00,CLR,,0.43,WeatherDisplay:10.37,2013-11-01 22:55:00,
2013-11-01 19:00:00,62.2,62.2,29.68,SE,138,0.0,0.0,100,0.00,CLR,,0.43,WeatherDisplay:10.37,2013-11-01 23:00:00,
2013-11-01 19:05:00,62.2,62.2,29.68,SE,138,0.0,0.0,100,0.00,CLR,,0.43,WeatherDisplay:10.37,2013-11-01 23:05:00,
2013-11-01 19:10:00,62.1,62.1,29.68,SE,138,0.0,0.0,100,0.00,CLR,,0.43,WeatherDisplay:10.37,2013-11-01 23:10:00,
2013-11-01 19:15:00,62.1,62.1,29.71,SE,136,0.0,0.0,100,0.00,CLR,,0.43,WeatherDisplay:10.37,2013-11-01 23:15:00,
2013-11-01 19:20:00,62.1,62.1,29.71,NNW,327,0.0,0.0,100,0.00,CLR,,0.43,WeatherDisplay:10.37,2013-11-01 23:20:00,
2013-11-01 19:25:00,61.9,61.9,29.71,NW,306,0.0,0.0,100,0.00,CLR,,0.43,WeatherDisplay:10.37,2013-11-01 23:25:00,
2013-11-01 19:30:00,61.7,61.7,29.71,WSW,249,0.0,0.0,100,0.00,CLR,,0.43,WeatherDisplay:10.37,2013-11-01 23:30:00,
2013-11-01 19:35:00,61.5,61.5,29.71,SSE,156,0.0,0.0,100,0.00,CLR,,0.43,WeatherDisplay:10.37,2013-11-01 23:35:00,
2013-11-01 19:40:00,61.5,61.5,29.71,South,185,0.0,0.0,100,0.00,CLR,,0.43,WeatherDisplay:10.37,2013-11-01 23:40:00,
2013-11-01 19:45:00,61.3,61.3,29.71,SE,124,0.0,0.0,100,0.00,CLR,,0.43,WeatherDisplay:10.37,2013-11-01 23:45:00,
2013-11-01 19:50:00,61.2,61.2,29.71,ENE,58,0.0,0.0,100,0.00,CLR,,0.43,WeatherDisplay:10.37,2013-11-01 23:50:00,
2013-11-01 19:55:00,61.2,61.2,29.71,NE,47,0.0,0.0,100,0.00,CLR,,0.43,WeatherDisplay:10.37,2013-11-01 23:55:00,
2013-11-01 20:00:00,61.0,61.0,29.71,North,352,0.0,0.0,100,0.00,CLR,,0.43,WeatherDisplay:10.37,2013-11-02 00:00:00,
2013-11-01 20:05:00,60.9,60.9,29.71,NW,325,0.0,0.0,100,0.00,CLR,,0.43,WeatherDisplay:10.37,2013-11-02 00:05:00,
2013-11-01 20:10:00,60.8,60.8,29.71,NW,325,0.0,0.0,100,0.00,CLR,,0.43,WeatherDisplay:10.37,2013-11-02 00:10:00,
2013-11-01 20:15:00,60.6,60.6,29.71,North,349,0.0,0.0,100,0.00,CLR,,0.43,WeatherDisplay:10.37,2013-11-02 00:15:00,
2013-11-01 20:20:00,60.6,60.6,29.71,NNE,26,0.0,0.0,100,0.00,CLR,,0.43,WeatherDisplay:10.37,2013-11-02 00:20:00,
2013-11-01 20:25:00,60.6,60.6,29.71,NE,35,0.0,0.0,100,0.00,CLR,,0.43,WeatherDisplay:10.37,2013-11-02 00:25:00,
2013-11-01 20:30:00,60.6,60.6,29.71,NE,35,0.0,0.0,100,0.00,CLR,,0.43,WeatherDisplay:10.37,2013-11-02 00:30:00,
2013-11-01 20:35:00,60.4,60.4,29.71,NNE,31,0.0,0.0,100,0.00,CLR,,0.43,WeatherDisplay:10.37,2013-11-02 00:35:00,
2013-11-01 20:40:00,60.3,60.3,29.71,NE,40,0.0,0.0,100,0.00,CLR,,0.43,WeatherDisplay:10.37,2013-11-02 00:40:00,
2013-11-01 20:45:00,60.3,60.3,29.74,NE,35,0.0,0.0,100,0.00,CLR,,0.43,WeatherDisplay:10.37,2013-11-02 00:45:00,
2013-11-01 20:50:00,60.3,60.3,29.74,North,9,0.0,0.0,100,0.00,CLR,,0.43,WeatherDisplay:10.37,2013-11-02 00:50:00,
2013-11-01 20:55:00,60.3,60.3,29.74,North,6,0.0,0.0,100,0.00,CLR,,0.43,WeatherDisplay:10.37,2013-11-02 00:55:00,
2013-11-01 21:00:00,60.1,60.1,29.74,North,9,0.0,0.0,100,0.00,CLR,,0.43,WeatherDisplay:10.37,2013-11-02 01:00:00,
2013-11-01 21:05:00,60.1,60.1,29.74,SE,136,0.0,0.0,100,0.00,CLR,,0.43,WeatherDisplay:10.37,2013-11-02 01:05:00,
2013-11-01 21:10:00,60.1,60.1,29.74,South,183,0.0,0.0,100,0.00,CLR,,0.43,WeatherDisplay:10.37,2013-11-02 01:10:00,
2013-11-01 21:15:00,59.9,59.9,29.74,WSW,240,0.0,0.0,100,0.00,CLR,,0.43,WeatherDisplay:10.37,2013-11-02 01:15:00,
2013-11-01 21:20:00,59.9,59.9,29.74,NW,325,0.0,0.0,100,0.00,CLR,,0.43,WeatherDisplay:10.37,2013-11-02 01:20:00,
2013-11-01 21:25:00,59.9,59.9,29.74,North,2,0.0,0.0,100,0.00,CLR,,0.43,WeatherDisplay:10.37,2013-11-02 01:25:00,
2013-11-01 21:30:00,59.9,59.9,29.74,ENE,75,0.0,3.0,100,0.00,CLR,,0.43,WeatherDisplay:10.37,2013-11-02 01:30:00,
2013-11-01 21:35:00,59.9,59.9,29.74,NNW,341,0.0,0.0,100,0.00,CLR,,0.43,WeatherDisplay:10.37,2013-11-02 01:35:00,
2013-11-01 21:40:00,59.9,59.9,29.74,NW,317,0.0,6.0,100,0.00,CLR,,0.43,WeatherDisplay:10.37,2013-11-02 01:40:00,
2013-11-01 21:45:00,59.9,59.9,29.74,WNW,296,0.0,0.0,100,0.00,CLR,,0.43,WeatherDisplay:10.37,2013-11-02 01:45:00,
2013-11-01 21:50:00,59.9,59.9,29.74,ESE,107,0.0,4.0,100,0.00,CLR,,0.43,WeatherDisplay:10.37,2013-11-02 01:50:00,
2013-11-01 21:55:00,59.9,59.9,29.74,ESE,106,0.0,0.0,100,0.00,CLR,,0.43,WeatherDisplay:10.37,2013-11-02 01:55:00,
2013-11-01 22:00:00,59.9,59.9,29.74,SE,139,0.0,0.0,100,0.00,CLR,,0.43,WeatherDisplay:10.37,2013-11-02 02:00:00,
2013-11-01 22:05:00,59.7,59.7,29.74,SE,144,0.0,0.0,100,0.00,CLR,,0.43,WeatherDisplay:10.37,2013-11-02 02:05:00,
2013-11-01 22:10:00,59.7,59.7,29.74,SE,138,0.0,0.0,100,0.00,CLR,,0.43,WeatherDisplay:10.37,2013-11-02 02:10:00,
2013-11-01 22:15:00,59.7,59.7,29.71,WNW,298,0.0,0.0,100,0.00,CLR,,0.43,WeatherDisplay:10.37,2013-11-02 02:15:00,
2013-11-01 22:20:00,59.8,59.8,29.71,NW,319,0.0,0.0,100,0.00,CLR,,0.43,WeatherDisplay:10.37,2013-11-02 02:20:00,
2013-11-01 22:25:00,59.9,59.9,29.71,North,351,0.0,0.0,100,0.00,CLR,,0.43,WeatherDisplay:10.37,2013-11-02 02:25:00,
2013-11-01 22:30:00,59.9,59.9,29.74,North,0,0.0,0.0,100,0.00,CLR,,0.43,WeatherDisplay:10.37,2013-11-02 02:30:00,
2013-11-01 22:35:00,59.9,59.9,29.74,North,0,0.0,0.0,100,0.00,CLR,,0.43,WeatherDisplay:10.37,2013-11-02 02:35:00,
2013-11-01 22:40:00,59.9,59.9,29.74,NNE,12,0.0,0.0,100,0.00,CLR,,0.43,WeatherDisplay:10.37,2013-11-02 02:40:00,
2013-11-01 22:50:00,60.0,60.0,29.74,SSE,158,0.0,0.0,100,0.00,CLR,,0.43,WeatherDisplay:10.37,2013-11-02 02:50:00,
2013-11-01 22:55:00,60.1,60.1,29.74,SSE,159,0.0,0.0,100,0.00,CLR,,0.43,WeatherDisplay:10.37,2013-11-02 02:55:00,
2013-11-01 23:00:00,60.1,60.1,29.74,SSE,161,0.0,0.0,100,0.00,CLR,,0.43,WeatherDisplay:10.37,2013-11-02 03:00:00,
2013-11-01 23:05:00,60.1,60.1,29.74,SSE,161,0.0,0.0,100,0.00,CLR,,0.43,WeatherDisplay:10.37,2013-11-02 03:05:00,
2013-11-01 23:10:00,60.1,60.1,29.74,SSE,161,0.0,0.0,100,0.00,CLR,,0.43,WeatherDisplay:10.37,2013-11-02 03:10:00,
2013-11-01 23:20:00,60.1,60.1,29.74,East,90,0.0,0.0,100,0.00,CLR,,0.43,WeatherDisplay:10.37,2013-11-02 03:20:00,
2013-11-01 23:25:00,60.1,60.1,29.74,East,83,0.0,0.0,100,0.00,CLR,,0.43,WeatherDisplay:10.37,2013-11-02 03:25:00,
2013-11-01 23:30:00,60.3,60.3,29.74,East,83,0.0,0.0,100,0.00,CLR,,0.43,WeatherDisplay:10.37,2013-11-02 03:30:00,
2013-11-01 23:35:00,60.3,60.3,29.74,East,83,0.0,0.0,100,0.00,CLR,,0.43,WeatherDisplay:10.37,2013-11-02 03:35:00,
2013-11-01 23:40:00,60.3,60.3,29.74,East,83,0.0,0.0,100,0.00,CLR,,0.43,WeatherDisplay:10.37,2013-11-02 03:40:00,
2013-11-01 23:45:00,60.3,60.3,29.74,East,87,0.0,0.0,100,0.00,CLR,,0.43,WeatherDisplay:10.37,2013-11-02 03:45:00,
2013-11-01 23:50:00,60.3,60.3,29.74,SE,134,0.0,0.0,100,0.00,CLR,,0.43,WeatherDisplay:10.37,2013-11-02 03:50:00,
2013-11-01 23:55:00,60.3,60.3,29.74,SSE,162,0.0,0.0,100,0.00,CLR,,0.43,WeatherDisplay:10.37,2013-11-02 03:55:00,